Content
SEND FEEDBACK

Daily
Averages
Monthly
Summary
United States of America

LAS CRUCES, NEW MEXICO


Home > North America > United States > New Mexico
Elevation: 4044 feet     Latitude: 32 19N     Longitude: 106 46W

WEATHER
 
SELECT A DAY
Number of Records: 348,763;   Date Range: 1/2/95 - 7/26/14
 
SHARE

PRINT THIS DATA

[ ← Previous Day ]
WEATHER ALMANAC - FEBRUARY 13, 2013
[ Next Day → ]
[ °C ]   °F
Weather ElementAverageHighLow
Temperature38.6 °F53.2 °F (3:35 pm)18.7 °F (7:15 am)
Dewpoint9.2 °F12.6 °F (8:35 am)4.6 °F (7:15 pm)
Humidity32.6 %60 % (7:15 am)16 % (2:55 pm)
Barometer30.12 in30.19 in (9:15 am)30.05 in (3:55 pm)
Wind Speed5.6 mph11.5 mph (2:15 pm)
Weather ElementAverage
Visibility10 mi
Wind DirectionSSW (197.6 °)

Weather ElementTotal
Precipitation---
Heating Degree Days29.1 (Base 65)
Averaged from 71 records on February 13, 2013
WEATHER CONDITIONS BREAKOUT
WIND DIRECTION BREAKOUT
WEATHER BY HOUR - FEBRUARY 13, 2013
[ °C ]   °F
Local TimeTemperatureDewpointHumidityBarometerVisibilityWind DirectionWind SpeedGust SpeedPrecipitationEventsConditions
12:35 AM31.6 °F11.8 °F44 %30.15 in10.0 miNorth (10°)6.9 mphClear
12:55 AM32.0 °F10.9 °F42 %30.15 in10.0 miNorth (360°)8.1 mphClear
1:15 AM32.4 °F10.4 °F40 %30.16 in10.0 miCalmClear
1:35 AM31.5 °F10.4 °F42 %30.16 in10.0 miNNW (340°)3.5 mphClear
1:55 AM31.6 °F10.4 °F41 %30.16 in10.0 miNorth (350°)6.9 mphClear
2:15 AM30.4 °F10.2 °F43 %30.15 in10.0 miNorth (360°)8.1 mphClear
2:35 AM31.8 °F10.4 °F41 %30.15 in10.0 miNorth (10°)5.8 mphClear
2:55 AM31.6 °F10.4 °F41 %30.15 in10.0 miNorth (360°)5.8 mphClear
3:15 AM31.8 °F10.6 °F41 %30.14 in10.0 miNNW (340°)8.1 mphClear
3:35 AM31.1 °F10.9 °F43 %30.14 in10.0 miNorth (10°)5.8 mphClear
3:55 AM29.5 °F11.3 °F47 %30.13 in10.0 miNorth (350°)5.8 mphClear
4:15 AM28.8 °F11.5 °F49 %30.13 in10.0 miNNW (340°)5.8 mphClear
4:35 AM27.7 °F11.3 °F50 %30.12 in10.0 miCalmClear
4:55 AM26.2 °F10.6 °F52 %30.12 in10.0 miCalmClear
5:15 AM24.8 °F10.2 °F54 %30.12 in10.0 miNW (320°)4.6 mphClear
5:35 AM22.6 °F9.5 °F57 %30.13 in10.0 miNW (320°)5.8 mphClear
5:55 AM21.0 °F8.6 °F59 %30.13 in10.0 miNNW (330°)5.8 mphClear
6:15 AM24.4 °F10.2 °F55 %30.14 in10.0 miCalmClear
6:35 AM22.1 °F9.0 °F57 %30.15 in10.0 miCalmClear
6:55 AM21.0 °F8.4 °F58 %30.15 in10.0 miCalmClear
7:15 AM18.7 °F7.0 °F60 %30.15 in10.0 miCalmClear
7:35 AM25.5 °F11.1 °F54 %30.16 in10.0 miESE (120°)3.5 mphClear
7:55 AM27.5 °F11.3 °F51 %30.16 in10.0 miCalmClear
8:15 AM28.8 °F11.7 °F49 %30.16 in10.0 miCalmClear
8:35 AM32.9 °F12.6 °F43 %30.17 in10.0 miNorth (350°)9.2 mphClear
8:55 AM35.8 °F11.8 °F37 %30.18 in10.0 miNE (50°)3.5 mphClear
9:15 AM35.8 °F12.0 °F38 %30.19 in10.0 miEast (90°)3.5 mphClear
9:35 AM37.6 °F12.2 °F35 %30.19 in10.0 miCalmClear
9:55 AM39.0 °F11.8 °F33 %30.19 in10.0 miENE (70°)3.5 mphClear
10:15 AM41.4 °F12.2 °F30 %30.19 in10.0 miENE (70°)3.5 mphClear
10:35 AM42.4 °F12.2 °F29 %30.19 in10.0 miENE (60°)4.6 mphClear
10:55 AM43.9 °F11.5 °F27 %30.18 in10.0 miSE (130°)4.6 mphClear
11:15 AM45.5 °F11.7 °F25 %30.17 in10.0 miCalmClear
11:35 AM45.9 °F11.3 °F25 %30.16 in10.0 miCalmClear
11:55 AM46.9 °F10.2 °F23 %30.16 in10.0 miCalmClear
12:15 PM48.2 °F10.4 °F22 %30.14 in10.0 miNW (310°)4.6 mphClear
12:35 PM49.1 °F9.7 °F20 %30.12 in10.0 miWest (270°)5.8 mphClear
12:55 PM49.3 °F9.1 °F20 %30.11 in10.0 miWest (270°)5.8 mphClear
1:15 PM50.2 °F8.6 °F19 %30.10 in10.0 miNNW (330°)5.8 mphClear
1:35 PM50.7 °F8.6 °F18 %30.09 in10.0 miWSW (240°)5.8 mphClear
1:55 PM52.2 °F8.1 °F17 %30.08 in10.0 miWest (270°)8.1 mphClear
2:15 PM52.2 °F8.1 °F17 %30.07 in10.0 miWSW (250°)11.5 mphClear
2:35 PM52.3 °F8.6 °F17 %30.07 in10.0 miSW (220°)9.2 mphClear
2:55 PM52.9 °F7.5 °F16 %30.06 in10.0 miWSW (240°)10.4 mphClear
3:15 PM52.9 °F7.3 °F16 %30.06 in10.0 miWSW (240°)8.1 mphClear
3:35 PM53.2 °F7.5 °F16 %30.06 in10.0 miWSW (240°)10.4 mphClear
3:55 PM53.2 °F7.3 °F16 %30.05 in10.0 miWSW (250°)9.2 mphClear
4:15 PM53.2 °F7.5 °F16 %30.06 in10.0 miWSW (250°)11.5 mphClear
4:35 PM52.7 °F7.7 °F16 %30.06 in10.0 miWSW (240°)10.4 mphClear
4:55 PM52.2 °F8.1 °F17 %30.06 in10.0 miWSW (250°)9.2 mphClear
5:15 PM51.4 °F8.1 °F17 %30.06 in10.0 miWest (260°)11.5 mphClear
5:35 PM50.4 °F7.7 °F18 %30.06 in10.0 miWSW (240°)9.2 mphClear
5:55 PM48.6 °F7.2 °F19 %30.06 in10.0 miWSW (240°)8.1 mphClear
6:15 PM46.4 °F6.8 °F20 %30.06 in10.0 miSW (230°)6.9 mphClear
6:35 PM44.2 °F6.4 °F21 %30.07 in10.0 miWSW (240°)5.8 mphClear
6:55 PM41.4 °F5.9 °F23 %30.07 in10.0 miWSW (250°)4.6 mphClear
7:15 PM39.2 °F4.6 °F24 %30.07 in10.0 miWSW (250°)5.8 mphClear
7:35 PM39.0 °F5.0 °F24 %30.08 in10.0 miWSW (250°)6.9 mphClear
7:55 PM38.3 °F5.0 °F25 %30.08 in10.0 miWest (270°)9.2 mphClear
8:15 PM39.2 °F5.4 °F25 %30.08 in10.0 miWest (260°)5.8 mphClear
8:35 PM38.3 °F5.9 °F26 %30.08 in10.0 miWest (270°)6.9 mphClear
8:55 PM38.8 °F7.5 °F27 %30.08 in10.0 miWest (280°)8.1 mphClear
9:15 PM40.1 °F9.3 °F28 %30.08 in10.0 miWest (280°)10.4 mphClear
9:35 PM40.1 °F8.6 °F27 %30.09 in10.0 miWest (280°)5.8 mphClear
9:55 PM39.0 °F8.2 °F28 %30.09 in10.0 miWSW (240°)5.8 mphClear
10:15 PM39.4 °F8.8 °F28 %30.09 in10.0 miWSW (250°)6.9 mphClear
10:35 PM38.8 °F9.1 °F29 %30.09 in10.0 miWest (260°)6.9 mphClear
10:55 PM37.0 °F8.6 °F31 %30.09 in10.0 miWest (260°)8.1 mphClear
11:15 PM36.3 °F8.4 °F31 %30.09 in10.0 miWest (270°)9.2 mphClear
11:35 PM34.3 °F7.9 °F33 %30.09 in10.0 miWNW (290°)5.8 mphClear
11:55 PM34.9 °F8.4 °F33 %30.09 in10.0 miWSW (250°)4.6 mphClear
Hourly data recorded from KLRU, located miles away from Las Cruces, New Mexico







STORIES FROM OUR PARTNERS